Location: Antin
(43.3330°N, 0.2804°E)
Time: 23:11:18
(UTC+00:00)

SME Rocket - Pass Details

Date: 30 May 2022
Orbit: 551 x 2650 km, 99.9° (Epoch: 01 July)

Event Time Altitude Azimuth Distance (km) Brightness Sun altitude
Exits shadow 23:39:05 - 91° (E) 2,483 6.1 -24.7°
Reaches altitude 10° 23:40:35 10° 75° (ENE) 2,208 6.0 -24.7°
Maximum altitude 23:42:48 13° 47° (NE) 2,157 6.3 -24.7°
Drops below altitude 10° 23:45:20 10° 20° (NNE) 2,607 7.1 -24.7°
Sets 23:49:36 0° 356° (N) 3,972 8.6 -24.8°
